GW6696 Weather Reports


Display with metric or nautical units.
time (UTC)temp
F
wind
direction
speed
MPH
gust
MPH
rain 1hr
in
rain 24hr
in
rain mn
in
humidity
%
barometer
mb
20260502235101 94 107 10.0 15.0 0.00 0.00 0.00 20 1006.1
20260502234504 94 109 10.0 16.0 0.00 0.00 0.00 23 1006.2
20260502234005 95 105 11.0 16.0 0.00 0.00 0.00 20 1006.2
20260502233506 95 108 11.0 16.0 0.00 0.00 0.00 20 1006.3
20260502233005 94 111 10.0 15.0 0.00 0.00 0.00 21 1006.3
20260502232530 94 111 10.0 15.0 0.00 0.00 0.00 21 1006.3
20260502232056 95 104 12.0 17.0 0.00 0.00 0.00 18 1006.3
20260502231504 94 110 10.0 17.0 0.00 0.00 0.00 19 1006.4
20260502231024 94 110 10.0 17.0 0.00 0.00 0.00 19 1006.4
20260502230506 95 101 10.0 15.0 0.00 0.00 0.00 20 1006.6
20260502230004 94 97 9.0 14.0 0.00 0.00 0.00 21 1006.7
20260502225547 94 97 9.0 14.0 0.00 0.00 0.00 21 1006.7
20260502225100 94 103 10.0 14.0 0.00 0.00 0.00 21 1006.8
20260502224506 95 103 9.0 13.0 0.00 0.00 0.00 20 1007.0
20260502224004 95 105 9.0 13.0 0.00 0.00 0.00 21 1007.0
20260502223529 95 105 9.0 13.0 0.00 0.00 0.00 21 1007.0
20260502223012 95 104 9.0 12.0 0.00 0.00 0.00 20 1007.1
20260502222625 95 104 8.0 11.0 0.00 0.00 0.00 21 1007.2
20260502222103 94 102 8.0 12.0 0.00 0.00 0.00 20 1007.2
20260502221504 93 108 8.0 11.0 0.00 0.00 0.00 20 1007.5
20260502221047 93 108 8.0 11.0 0.00 0.00 0.00 20 1007.5
20260502220511 93 106 8.0 11.0 0.00 0.00 0.00 21 1007.7
20260502220004 92 104 9.0 13.0 0.00 0.00 0.00 21 1007.8
20260502215531 92 104 9.0 13.0 0.00 0.00 0.00 21 1007.8
20260502215032 92 102 9.0 12.0 0.00 0.00 0.00 20 1007.9
20260502214504 93 88 9.0 12.0 0.00 0.00 0.00 20 1007.9
20260502214028 93 88 9.0 12.0 0.00 0.00 0.00 20 1007.9
20260502213506 93 98 8.0 11.0 0.00 0.00 0.00 19 1008.1
20260502213005 93 99 8.0 12.0 0.00 0.00 0.00 18 1008.3
20260502212620 93 99 8.0 12.0 0.00 0.00 0.00 18 1008.3
20260502212056 93 104 9.0 13.0 0.00 0.00 0.00 19 1008.2
20260502211505 93 105 10.0 13.0 0.00 0.00 0.00 18 1008.5
20260502211048 93 105 10.0 13.0 0.00 0.00 0.00 18 1008.5
20260502210509 93 106 10.0 13.0 0.00 0.00 0.00 18 1008.5
20260502210027 93 104 9.0 14.0 0.00 0.00 0.00 19 1008.7
20260502205551 93 104 9.0 14.0 0.00 0.00 0.00 19 1008.7
20260502205058 94 104 10.0 13.0 0.00 0.00 0.00 17 1008.8
20260502204506 94 99 8.0 12.0 0.00 0.00 0.00 21 1008.8
20260502204027 94 96 8.0 12.0 0.00 0.00 0.00 20 1009.0
20260502203507 94 96 8.0 12.0 0.00 0.00 0.00 20 1009.0
20260502203028 93 99 9.0 11.0 0.00 0.00 0.00 21 1009.1
20260502202549 93 99 9.0 11.0 0.00 0.00 0.00 21 1009.1
20260502202034 92 100 9.0 12.0 0.00 0.00 0.00 24 1009.2
20260502201508 91 97 8.0 12.0 0.00 0.00 0.00 27 1009.2
20260502201026 92 98 8.0 12.0 0.00 0.00 0.00 24 1009.4
20260502200531 92 96 7.0 12.0 0.00 0.00 0.00 22 1009.4
20260502200015 92 96 8.0 11.0 0.00 0.00 0.00 20 1009.5
20260502195604 92 91 7.0 11.0 0.00 0.00 0.00 23 1009.5
20260502195104 92 95 8.0 10.0 0.00 0.00 0.00 17 1009.6
20260502194506 92 103 6.0 8.0 0.00 0.00 0.00 26 1009.7
20260502194006 92 99 5.0 7.0 0.00 0.00 0.00 27 1009.7
20260502193526 92 99 5.0 7.0 0.00 0.00 0.00 27 1009.7
20260502193028 91 104 6.0 8.0 0.00 0.00 0.00 29 1009.7
20260502192608 91 91 6.0 8.0 0.00 0.00 0.00 32 1009.8
20260502192054 91 88 5.0 8.0 0.00 0.00 0.00 33 1009.8
20260502191505 93 75 3.0 5.0 0.00 0.00 0.00 16 1009.9
20260502191046 93 75 3.0 5.0 0.00 0.00 0.00 16 1009.9
20260502190507 92 62 3.0 5.0 0.00 0.00 0.00 17 1009.9
20260502190007 93 62 5.0 8.0 0.00 0.00 0.00 21 1010.0
20260502185559 93 62 5.0 8.0 0.00 0.00 0.00 21 1010.0
20260502185102 93 92 4.0 9.0 0.00 0.00 0.00 16 1010.1
20260502184507 92 106 3.0 5.0 0.00 0.00 0.00 16 1010.3
20260502184006 91 86 4.0 7.0 0.00 0.00 0.00 19 1010.4
20260502183528 91 87 4.0 6.0 0.00 0.00 0.00 18 1010.4
20260502183009 90 87 5.0 6.0 0.00 0.00 0.00 18 1010.3
20260502182604 90 87 5.0 6.0 0.00 0.00 0.00 18 1010.3
20260502182101 90 89 5.0 6.0 0.00 0.00 0.00 23 1010.4
20260502181506 90 92 4.0 7.0 0.00 0.00 0.00 28 1010.5
20260502181025 90 92 4.0 7.0 0.00 0.00 0.00 28 1010.5
20260502180530 88 82 4.0 5.0 0.00 0.00 0.00 29 1010.6
20260502170510 81 75 7.0 9.0 0.00 0.00 0.00 44 1010.8
20260502164007 84 16 8.0 10.0 0.00 0.00 0.00 34 1010.8
20260502163507 84 9 8.0 11.0 0.00 0.00 0.00 34 1010.9
20260502163033 84 9 8.0 11.0 0.00 0.00 0.00 34 1010.9
20260502162641 83 8 9.0 12.0 0.00 0.00 0.00 36 1010.9
20260502162104 82 12 9.0 12.0 0.00 0.00 0.00 39 1010.9
20260502161527 81 7 9.0 12.0 0.00 0.00 0.00 40 1010.8
20260502161027 81 7 9.0 12.0 0.00 0.00 0.00 40 1010.8
20260502160506 81 5 9.0 12.0 0.00 0.00 0.00 42 1010.9
20260502152107 77 356 11.0 15.0 0.00 0.00 0.00 45 1010.7
20260502151506 77 354 10.0 14.0 0.00 0.00 0.00 47 1010.6
20260502151026 77 354 10.0 14.0 0.00 0.00 0.00 47 1010.6
20260502150507 76 4 11.0 14.0 0.00 0.00 0.00 49 1010.6
20260502130510 73 347 10.0 11.0 0.00 0.00 0.00 51 1009.7
20260502123538 74 342 12.0 15.0 0.00 0.00 0.00 44 1009.5
20260502123107 74 344 12.0 14.0 0.00 0.00 0.00 44 1009.4
20260502122645 74 339 12.0 15.0 0.00 0.00 0.00 44 1009.3
20260502122135 74 341 12.0 14.0 0.00 0.00 0.00 44 1009.3
20260502121507 75 343 12.0 15.0 0.00 0.00 0.00 43 1009.2
20260502121050 75 343 12.0 15.0 0.00 0.00 0.00 43 1009.2
20260502120531 74 347 11.0 15.0 0.00 0.00 0.00 44 1009.2
20260502115641 75 342 11.0 14.0 0.00 0.00 0.00 42 1009.2
20260502115120 75 338 11.0 13.0 0.00 0.00 0.00 43 1009.1
20260502114529 74 341 10.0 13.0 0.00 0.00 0.00 43 1009.1
20260502114006 75 345 9.0 11.0 0.00 0.00 0.00 44 1009.2
20260502113548 75 345 9.0 11.0 0.00 0.00 0.00 44 1009.2
20260502113112 75 341 9.0 11.0 0.00 0.00 0.00 44 1009.2
20260502112654 76 346 9.0 12.0 0.00 0.00 0.00 43 1009.2
20260502112138 76 346 10.0 13.0 0.00 0.00 0.00 42 1009.2
20260502111527 76 348 9.0 13.0 0.00 0.00 0.00 41 1009.2
20260502111111 76 346 9.0 12.0 0.00 0.00 0.00 42 1009.2
20260502110656 77 343 10.0 13.0 0.00 0.00 0.00 40 1009.1
20260502110119 77 349 10.0 13.0 0.00 0.00 0.00 39 1009.0
20260502105638 77 343 11.0 14.0 0.00 0.00 0.00 39 1009.0
20260502105122 77 350 10.0 14.0 0.00 0.00 0.00 40 1009.0
20260502104527 78 343 11.0 16.0 0.00 0.00 0.00 39 1008.9
20260502104026 77 337 12.0 15.0 0.00 0.00 0.00 41 1008.9
20260502103528 77 344 9.0 12.0 0.00 0.00 0.00 41 1008.9
20260502103058 77 351 10.0 14.0 0.00 0.00 0.00 43 1008.8
20260502102659 77 353 12.0 16.0 0.00 0.00 0.00 44 1008.8
20260502102123 77 351 12.0 15.0 0.00 0.00 0.00 43 1008.9
20260502101514 77 334 15.0 20.0 0.00 0.00 0.00 40 1008.8
20260502101051 76 336 11.0 15.0 0.00 0.00 0.00 43 1008.8
20260502100515 76 332 12.0 16.0 0.00 0.00 0.00 42 1008.8
20260502091508 80 360 11.0 14.0 0.00 0.00 0.00 42 1008.7
20260502091026 80 360 11.0 14.0 0.00 0.00 0.00 42 1008.7
20260502090538 82 355 8.0 10.0 0.00 0.00 0.00 34 1008.7
20260502071237 84 331 13.0 18.0 0.00 0.00 0.00 32 1008.6
20260502070708 84 336 13.0 16.0 0.00 0.00 0.00 31 1008.6
20260502070006 84 328 13.0 19.0 0.00 0.00 0.00 30 1008.5
20260502065513 84 328 13.0 19.0 0.00 0.00 0.00 30 1008.5
20260502065025 83 332 12.0 16.0 0.00 0.00 0.00 30 1008.5
20260502064505 84 327 13.0 16.0 0.00 0.00 0.00 29 1008.4
20260502064007 84 331 13.0 18.0 0.00 0.00 0.00 28 1008.4
20260502063553 84 331 13.0 18.0 0.00 0.00 0.00 28 1008.4
20260502063133 84 331 14.0 17.0 0.00 0.00 0.00 28 1008.4
20260502062806 84 327 13.0 17.0 0.00 0.00 0.00 28 1008.4
20260502062250 84 327 13.0 18.0 0.00 0.00 0.00 28 1008.4
20260502061321 84 328 11.0 15.0 0.00 0.00 0.00 27 1008.4
20260502060458 84 325 12.0 16.0 0.00 0.00 0.00 27 1008.3
20260502055752 84 329 11.0 14.0 0.00 0.00 0.00 27 1008.4
20260502054857 84 330 13.0 16.0 0.00 0.00 0.00 27 1008.3
20260502054041 84 332 12.0 16.0 0.00 0.00 0.00 27 1008.4
20260502053350 84 331 11.0 14.0 0.00 0.00 0.00 27 1008.3
20260502052543 84 335 11.0 14.0 0.00 0.00 0.00 27 1008.3
20260502051557 85 333 12.0 15.0 0.00 0.00 0.00 26 1008.2
20260502050848 87 339 12.0 16.0 0.00 0.00 0.00 25 1008.2
20260502050018 88 330 14.0 19.0 0.00 0.00 0.00 24 1008.1
20260502045355 87 325 12.0 15.0 0.00 0.00 0.00 24 1008.1
20260502044610 86 327 10.0 13.0 0.00 0.00 0.00 25 1008.1
20260502044006 86 316 12.0 15.0 0.00 0.00 0.00 28 1008.0
20260502043439 84 313 12.0 16.0 0.00 0.00 0.00 33 1007.9
20260502042812 84 320 13.0 17.0 0.00 0.00 0.00 35 1007.8
20260502042038 85 326 16.0 21.0 0.00 0.00 0.00 35 1007.6
20260502041206 88 330 12.0 16.0 0.00 0.00 0.00 28 1007.3
20260502040559 87 317 12.0 19.0 0.00 0.00 0.00 30 1007.2
20260502040007 87 337 9.0 13.0 0.00 0.00 0.00 32 1007.1
20260502035545 87 337 9.0 13.0 0.00 0.00 0.00 32 1007.1
20260502035042 86 293 8.0 16.0 0.00 0.00 0.00 30 1006.9
20260502034528 87 117 5.0 7.0 0.00 0.00 0.00 29 1006.7
20260502034008 87 117 5.0 7.0 0.00 0.00 0.00 29 1006.7
20260502033508 86 118 4.0 6.0 0.00 0.00 0.00 29 1006.6
20260502033006 90 133 2.0 4.0 0.00 0.00 0.00 21 1006.4
20260502032533 90 133 2.0 4.0 0.00 0.00 0.00 21 1006.4
20260502032044 90 147 3.0 5.0 0.00 0.00 0.00 21 1006.4
20260502031508 90 147 4.0 5.0 0.00 0.00 0.00 20 1006.3
20260502031027 89 144 4.0 6.0 0.00 0.00 0.00 21 1006.2
20260502030536 90 141 5.0 7.0 0.00 0.00 0.00 21 1006.1
20260502030007 90 145 5.0 6.0 0.00 0.00 0.00 21 1006.0
20260502025543 90 145 5.0 6.0 0.00 0.00 0.00 21 1006.0
20260502025033 90 141 5.0 7.0 0.00 0.00 0.00 22 1005.9
20260502024528 90 140 5.0 7.0 0.00 0.00 0.00 23 1005.9
20260502024028 90 136 5.0 7.0 0.00 0.00 0.00 24 1005.9
20260502023507 91 125 6.0 8.0 0.00 0.00 0.00 23 1005.9
20260502023007 93 114 5.0 8.0 0.00 0.00 0.00 21 1005.9
20260502022540 93 114 5.0 8.0 0.00 0.00 0.00 21 1005.9
20260502022049 93 131 5.0 7.0 0.00 0.00 0.00 19 1005.8
20260502021510 93 134 6.0 8.0 0.00 0.00 0.00 19 1005.8
20260502021048 93 139 5.0 9.0 0.00 0.00 0.00 19 1005.8
20260502020510 93 139 6.0 8.0 0.00 0.00 0.00 19 1005.8
20260502020008 93 137 5.0 8.0 0.00 0.00 0.00 19 1005.8
20260502015549 93 137 5.0 8.0 0.00 0.00 0.00 19 1005.8
20260502015036 93 131 4.0 6.0 0.00 0.00 0.00 19 1005.8
20260502014527 93 133 5.0 8.0 0.00 0.00 0.00 21 1005.8
20260502014007 93 133 5.0 8.0 0.00 0.00 0.00 21 1005.8
20260502013508 92 138 6.0 11.0 0.00 0.00 0.00 21 1005.8
20260502013007 90 129 5.0 8.0 0.00 0.00 0.00 32 1005.8
20260502012534 90 129 5.0 8.0 0.00 0.00 0.00 32 1005.8
20260502012034 89 121 7.0 10.0 0.00 0.00 0.00 34 1005.8
20260502011508 89 119 8.0 12.0 0.00 0.00 0.00 35 1005.8
20260502011028 88 117 8.0 12.0 0.00 0.00 0.00 38 1005.8
20260502010510 87 114 9.0 13.0 0.00 0.00 0.00 45 1005.8
20260502010006 92 109 8.0 14.0 0.00 0.00 0.00 35 1005.8
20260502005520 92 109 8.0 14.0 0.00 0.00 0.00 35 1005.8
20260502005027 93 109 7.0 9.0 0.00 0.00 0.00 22 1005.8
20260502004507 92 101 6.0 9.0 0.00 0.00 0.00 29 1005.8
20260502004007 91 99 7.0 10.0 0.00 0.00 0.00 30 1005.8
20260502003508 91 99 7.0 10.0 0.00 0.00 0.00 30 1005.8
20260502003035 91 95 6.0 9.0 0.00 0.00 0.00 34 1005.9
20260502002621 93 96 6.0 9.0 0.00 0.00 0.00 31 1005.9
20260502002107 93 109 7.0 9.0 0.00 0.00 0.00 26 1005.9
20260502001507 91 120 7.0 10.0 0.00 0.00 0.00 31 1006.0
20260502001027 91 120 7.0 10.0 0.00 0.00 0.00 31 1006.0
20260502000510 90 115 8.0 12.0 0.00 0.00 0.00 33 1006.1
20260502000007 89 109 8.0 12.0 0.00 0.00 0.00 37 1006.1
20260501235601 89 109 8.0 12.0 0.00 0.00 0.00 37 1006.1